Terminal Aerodrome Forecast
Issued by NWS

Home | Current Version | Previous Version | Text Only | Print | Product List | Glossary On
Versions: 1 2 3 4 5 6 7 8 9 10 11 12 13
000
FTAK31 PAJN 282320
TAFAWG
TAF
PAWG 282320Z 2900/2924 30006KT P6SM -SHRA SCT010 BKN035 OVC050
     FM290400 11006KT P6SM VCSH SCT015 OVC035
     FM291500 12006KT 5SM -SHRA BR BKN015 OVC025
     FM292200 10005KT 6SM -SHRA OVC025
      AMD LTD TO CLD VIS AND WIND 2906/2915=

USA.gov is the U.S. government's official web portal to all federal, state and local government web resources and services.